Other Public Products
Issued by NWS Grand Forks, ND

Home | Current Version | Previous Version | Graphics & Text | Print | Product List | Glossary On
Versions: 1 2 3 4 5 6 7 8 9 10 11 12 13 14 15 16 17 18 19 20 21 22 23 24 25 26 27 28 29 30 31 32 33 34 35 36 37 38 39 40 41 42 43 44 45 46 47 48 49 50
000
FPUS83 KFGF 280431
OPUFGF
PRAIRIE TO PINES WEATHER ROUNDUP
NATIONAL WEATHER SERVICE EASTERN NORTH DAKOTA/GRAND FORKS ND
1000 PM CST SAT DEC 27 2014

 **SATELLITE DATA USED TO AUGMENT SKY COVER AT AUTOMATED STATIONS**
 *****  WEATHER ACROSS EASTERN NORTH DAKOTA  *****

CITY           SKY/WX    TMP DP  RH WIND       PRES   REMARKS
GRAND FORKS    FLURRIES  12   7  80 N13       30.09R WCI  -3
GRAND FORKS AF FLURRIES  10  10 100 N14       30.09R WCI  -5
GRAND CITY NWS   N/A     10 N/A N/A N12         N/A  WCI  -4
BUXTON           N/A     20  19  97 NW2         N/A
DEVILS LAKE    CLOUDY    12   7  79 NE7       30.04R WCI   2
FARGO          CLOUDY    24  19  81 SW7       30.04R WCI  16
WAHPETON ARPT  CLOUDY    23  19  86 SW3       30.05S
$$

 *****  WEATHER ACROSS CENTRAL AND WESTERN NORTH DAKOTA  *****

CITY           SKY/WX    TMP DP  RH WIND       PRES   REMARKS
JAMESTOWN      CLOUDY    21  16  81 NW14      30.02R WCI   8
BISMARCK       CLOUDY    14  11  87 CALM      30.04S
MINOT          CLOUDY    12   7  80 N9        30.06R WCI   0
MINOT AFB      MIX PCPN  10  10 100 N7        30.06R WCI   0
GARRISON         N/A     18  14  84 N3        30.02R
WILLISTON      CLOUDY    19  15  84 NE7       30.01S WCI  10
DICKINSON      CLOUDY    23  16  74 W6        29.95S WCI  16
HETTINGER      PTCLDY    18  14  84 NW7       29.99F WCI   9
$$

 *****  OTHER OBSERVATIONS NORTHEAST NORTH DAKOTA  *****

CITY           SKY/WX    TMP DP  RH WIND       PRES   REMARKS
WALHALLA         N/A      1   0  92 N8        30.15R WCI -12
LANGDON        CLOUDY     1  -2  85 NE10      30.06R WCI -14
CAVALIER       FAIR       1   0  92 N7        30.15R WCI -11
GRAFTON        NOT AVBL
CANDO          CLOUDY     9   5  85 NE8       30.07R WCI  -4
FORT TOTTEN      N/A     13   9  85 NE3       29.95S
ROLLA          FLURRIES   0  -2  92 N7        30.06R WCI -13
RUGBY          FAIR      10   7  85 N7        30.06R WCI   0
 ***** THE ABOVE OBSERVATIONS ARE NON NWS ARE NOT QUALITY
        CONTROLLED AND MAY MIS-REPORT RAIN FOR SNOW...
$$

 *****  OTHER OBSERVATIONS SOUTHEAST NORTH DAKOTA *****

CITY           SKY/WX    TMP DP  RH WIND       PRES   REMARKS
COOPERSTOWN    NOT AVBL
VALLEY CITY    CLOUDY    23  23 100 NW10      30.02R WCI  12
OAKES            N/A     16  16 100 W8        30.04R WCI   5
GWINNER        CLEAR     19  18  93 SW9       30.05S WCI   9
SHEYENNE NWR     N/A     20  16  85 SW6       29.95S WCI  12
BUFFALO        NOT AVBL
WYNDMERE         N/A     21  18  86 W8          N/A  WCI  12
 ***** THE ABOVE OBSERVATIONS ARE NON NWS ARE NOT QUALITY
       CONTROLLED AND MAY MIS-REPORT RAIN FOR SNOW...
$$

  *****  WEATHER ACROSS NORTHERN MINNESOTA  *****

CITY           SKY/WX    TMP DP  RH WIND       PRES   REMARKS
FLAG ISLAND    PTCLDY     0  -4  85 NW16      30.05S WCI -21
WARROAD        CLOUDY     3   0  85 NW9       30.07R WCI -11
ROSEAU         CLOUDY     7   0  72 N14       30.08R WCI -10
HALLOCK        MOCLDY     5   0  78 N12       30.12R WCI -11
THF RVR FALLS  CLOUDY    12   9  85 N9        30.05R WCI   0
HALSTAD          N/A     20  18  92 E2          N/A
FOSSTON        LGT SNOW  16  12  86 N5        30.03R WCI   9
BAUDETTE       CLOUDY     7   1  76 NW17      30.03R WCI -12
WASKISH        FLURRIES  14  10  85 W7        30.02R WCI   4
CROOKSTON      LGT SNOW  16  12  86 N13       30.08R WCI   2
$$
  *****  WEATHER ACROSS CENTRAL AND WEST MINNESOTA  *****

CITY           SKY/WX    TMP DP  RH WIND       PRES   REMARKS
BEMIDJI        FLURRIES  16  14  89 NW10      30.00S WCI   4
PARK RAPIDS    CLOUDY    19  15  84 NW3       29.99S
WADENA         CLOUDY    19  16  86 SW6       30.00F WCI  11
DETROIT LAKES  FLURRIES  21  19  93 W5        30.01S WCI  15
MOORHEAD       CLOUDY    23  23 100 SW3       30.04S
FERGUS FALLS   CLOUDY    19  16  86 SW6       30.07S WCI  11
ELBOW LAKE     CLOUDY    19  17  90 S6        30.03F WCI  11
MORRIS MN      CLOUDY    21  16  79 SW7       30.05S WCI  13
STAPLES        CLOUDY    19  18  93 SW5       30.01F WCI  13
WHEATON        CLOUDY    19  16  86 SW7       30.07S WCI  10
$$
  *****  WEATHER ELSEWHERE ACROSS MINNESOTA  *****

CITY           SKY/WX    TMP DP  RH WIND       PRES   REMARKS
DULUTH         PTCLDY    16   5  62 W6        29.97S WCI   7
INTRNTL FALLS  LGT SNOW  13   8  81 W9        29.98R WCI   1
ELY            CLOUDY    12   7  79 W7        29.95S WCI   2
CLOQUET        PTCLDY    18  10  73 W7        29.99S WCI   8
BRAINERD       CLOUDY    20  15  81 SW6       30.03S WCI  12
HIBBING        LGT SNOW  18  10  71 CALM      29.98R
ALEXANDRIA     CLOUDY    20  15  81 SW8       30.03F WCI  10
SAINT CLOUD    CLOUDY    18  10  71 SW5       30.08R WCI  11
MINNEAPOLIS    PTCLDY    12   6  77 SW6       30.12S WCI   3
$$

  *****  WEATHER ACROSS SOUTH DAKOTA  *****

CITY           SKY/WX    TMP DP  RH WIND       PRES   REMARKS
SIOUX FALLS    PTCLDY    10   8  92 S6        30.12F WCI   0
BROOKINGS      NOT AVBL
WATERTOWN      CLEAR      6   4  91 S8        30.05S WCI  -7
HURON          CLEAR     13   9  84 S7        30.08F WCI   3
SISSETON         N/A     22  17  81 W15       30.03F WCI   9
ABERDEEN       PTCLDY    18  14  84 S8        30.06R WCI   8
MITCHELL       CLEAR     12   9  87 SW6       30.11F WCI   3
PIERRE         CLEAR     16  11  80 SW10      30.06S WCI   4
MOBRIDGE       CLOUDY    17  13  84 CALM      30.02R
RAPID CITY     CLEAR     11   6  81 W5        30.02F WCI   3
$$

  *****  SOME WEATHER IN NEARBY STATES *****

CITY           SKY/WX    TMP DP  RH WIND       PRES   REMARKS
GLASGOW MT     CLOUDY    25  18  74 W5        29.93S WCI  19
GREAT FALLS MT CLOUDY    29  20  69 S12       29.83F WCI  19
CHEYENNE WY    CLEAR     17   0  47 W16       30.00F WCI   2
SCOTTSBLUFF NE CLEAR      5   2  87 N6        30.09S WCI  -6
OMAHA NE       CLEAR     18  15  88 SE6       30.25S WCI  10
DES MOINES IA  CLEAR     21  16  81 W3        30.23S
DAVENPORT IA   CLEAR     25  19  78 W12       30.20R WCI  14
CHICAGO IL     CLOUDY    32  25  75 NW16      30.11R WCI  21
EAU CLAIRE WI  CLEAR     13   7  77 SW10      30.09S WCI   0
LA CROSSE WI   CLEAR     18  11  74 SW6       30.17R WCI  10
$$

  *****  SOME NATIONAL WEATHER *****

CITY           SKY/WX    TMP DP  RH WIND       PRES   REMARKS
LA GUARDIA NY  MOCLDY    49  35  58 SW7       30.11F
RALEIGH NC     CLOUDY    51  38  60 S5        30.20F
ATLANTA GA     LGT RAIN  54  50  87 S5        30.18F
NEW ORLEANS LA MOCLDY    69  67  93 SW6       30.09S FOG
OKLAHOMA CITY  PTCLDY    28  18  66 NW5       30.30S WCI  23
ALBUQUERQUE NM CLEAR     27   7  42 N13       30.28R WCI  16
SALT LAKE CITY CLOUDY    25  15  66 SE8       30.28F WCI  16
LOS ANGELES CA PTCLDY    55  34  45 NW6       30.33R
BOISE ID       LGT SNOW  28  27  93 SE8       30.17F FOG     WCI  20
SEATTLE WA     MOCLDY    45  39  79 SW16      30.05S
$$

*** WEATHER ACROSS MANITOBA...SASKATCHEWAN AND ONTARIO ***
                ***ONTARIO***

CITY           SKY/WX    TMP DP  RH WIND       PRES   REMARKS
GERALDTON      FLURRIES N/A N/A N/A W13         N/A
THUNDER BAY    MOCLDY     9   7  92 S5        29.96  WCI   0
SIOUX LOOKOUT  FLURRIES   5   0  78 NW9G18    29.92  WCI  -9
TORONTO        LGT RAIN  45  43  93 W29G39    29.86
BIG TROUT LK   FLURRIES  -9 -13  84 NW8       29.90S WCI -26
PICKLE LAKE    NOT AVBL
DRYDEN         FLURRIES   5   1  85 W10G17    29.94R WCI -10
KENORA         FLURRIES   0  -6  78 NW12      30.00R WCI -18
$$
                *** MANITOBA***

CITY           SKY/WX    TMP DP  RH WIND       PRES   REMARKS
BRANDON        CLOUDY    -4  -8  84 NE6       30.13R WCI -16
DAUPHIN        CLEAR    -13 -17  84 SW5       30.19R WCI -25
ISLAND LAKE    PTCLDY   -24 -29  76 W8        30.05R WCI -43
PILOT MOUND      N/A      0  -2  92 NE7         N/A  WCI -13
THE PAS        CLEAR    -18 -24  76 NW13      30.19S WCI -41
THOMPSON       PTCLDY   -18 -24  76 N6        30.10R WCI -33
WINNIPEG       CLEAR     -8 -15  71 NW13      30.16R WCI -28
CHURCHILL      CRYSTALS -15 -20  76 N18G28    30.09  BLWGSNOWWCI -41
GILLAM         LGT SNOW -13 -18  77 NW12      30.03R DRFTSNOWWCI -33
$$
                ***SASKATCHEWAN***

CITY           SKY/WX    TMP DP  RH WIND       PRES   REMARKS
ESTEVAN        LGT SNOW  10   7  85 NE7       30.05R WCI   0
KINDERSLEY     CRYSTALS   9   5  85 E16       29.97R WCI  -9
LLOYDMINSTER   FLURRIES   3   0  85 E13       30.05R WCI -14
PRINCE ALBERT  CLEAR    -24 -29  76 CALM      30.20R FOG
REGINA         MOCLDY     5  -4  66 E7        30.07R WCI  -7
YORKTON        CLEAR    -18 -24  76 NW5       30.13R WCI -31


USA.gov is the U.S. government's official web portal to all federal, state and local government web resources and services.